Stations météo

réclame
Mon MeteoGroup
K14A, Pays-Bas (6204): Température de l'air & dewpoint: 17.05.2018 22:00:00 - 23.05.2018 22:00:00 (CEST)K14A, Pays-Bas (6204): Vitesse du vent & gusts: 17.05.2018 22:00:00 - 23.05.2018 22:00:00 (CEST)K14A, Pays-Bas (6204): Direction du vent: 17.05.2018 22:00:00 - 23.05.2018 22:00:00 (CEST)K14A, Pays-Bas (6204): reduced air pressure: 17.05.2018 22:00:00 - 23.05.2018 22:00:00 (CEST)K14A, Pays-Bas (6204): visibility: 17.05.2018 22:00:00 - 23.05.2018 22:00:00 (CEST)
Date & Time tt [°C] td [°C] ff [km/h] ff [knt] fx [km/h] fx [knt] dd ppp [hPa] vv [km]
23.05.2018 22:00:00 11,7 10,5 50 27 47 25 NE 1024,1 10
23.05.2018 21:00:00 11,9 10,3 48 26 47 25 NE 1023,7 10
23.05.2018 20:00:00 12,2 10,4 54 29 50 27 NNE 1023,3 10
23.05.2018 19:00:00 12,3 10,6 52 28 50 27 NNE 1023,2 10
23.05.2018 18:00:00 12,4 10,5 52 28 50 27 NNE 1023,2 10
23.05.2018 17:00:00 12,3 10,6 52 28 50 27 NNE 1023,3 10
23.05.2018 16:00:00 12,3 10,6 52 28 50 27 NNE 1023,3 10
23.05.2018 15:00:00 12,2 10,7 46 25 43 23 NNE 1023,5 10
23.05.2018 14:00:00 12,5 10,6 46 25 47 25 NNE 1023,4 10
23.05.2018 13:00:00 12,2 10,6 50 27 47 25 NNE 1023,4 10
23.05.2018 12:00:00 12,2 10,6 46 25 47 25 NNE 1023,1 10
23.05.2018 11:00:00 11,8 10,5 50 27 47 25 NNE 1022,6 10
23.05.2018 10:00:00 11,6 10,5 44 24 43 23 NNE 1022,5 10
23.05.2018 09:00:00 11,7 10,6 42 23 43 23 NNE 1022,0 10
23.05.2018 08:00:00 11,6 10,5 36 19 43 23 NNE 1021,5 17
23.05.2018 07:00:00 11,8 10,4 42 23 40 21 NNE 1020,7 10
23.05.2018 06:00:00 11,5 10,4 44 24 47 25 N 1020,1 10
23.05.2018 05:00:00 11,5 10,3 48 26 47 25 N 1019,7 10
23.05.2018 04:00:00 11,5 10,3 48 26 43 23 N 1019,8 10
23.05.2018 03:00:00 11,7 10,2 40 21 40 21 N 1019,8 18
23.05.2018 02:00:00 11,5 10,3 39 21 36 19 N 1019,8 10
23.05.2018 01:00:00 11,8 10,7 35 19 36 19 N 1019,5 10
23.05.2018 00:00:00 11,7 10,8 39 21 36 19 NNE 1019,2 10
22.05.2018 23:00:00 11,7 10,9 37 20 36 19 NNE 1019,0 10
22.05.2018 22:00:00 11,9 10,8 39 21 36 19 NNE 1018,3 10
22.05.2018 21:00:00 11,9 10,9 39 21 36 19 NNE 1017,6 10
22.05.2018 20:00:00 12,1 11,0 41 22 40 21 NNE 1017,5 10
22.05.2018 19:00:00 12,2 10,9 41 22 40 21 N 1017,2 10
22.05.2018 18:00:00 12,7 10,4 39 21 36 19 NE 1016,6 10
22.05.2018 17:00:00 12,1 11,0 34 18 32 18 NNE 1016,5 10
22.05.2018 16:00:00 12,2 10,9 37 20 32 18 NE 1016,5 10
22.05.2018 15:00:00 12,0 10,8 34 18 29 16 NNE 1016,1 10
22.05.2018 14:00:00 11,8 10,7 31 17 29 16 NNE 1016,2 10
22.05.2018 13:00:00 11,9 10,8 31 17 29 16 NE 1015,7 10
22.05.2018 12:00:00 11,6 10,6 31 17 29 16 NE 1015,4 10
22.05.2018 11:00:00 11,7 10,5 29 16 29 16 NE 1015,2 10
22.05.2018 10:00:00 11,8 10,4 24 13 25 14 NE 1014,9 10
22.05.2018 09:00:00 12,4 10,8 29 16 29 16 E 1014,5 10
22.05.2018 08:00:00 13,0 10,7 34 18 29 16 E 1014,1 10
22.05.2018 07:00:00 13,3 10,6 34 18 32 18 E 1013,9 10
22.05.2018 06:00:00 13,2 10,8 35 19 36 19 E 1013,6 10
22.05.2018 05:00:00 12,6 11,0 35 19 32 18 E 1013,6 10
22.05.2018 04:00:00 12,7 11,1 34 18 32 18 E 1013,7 10
22.05.2018 03:00:00 12,3 10,7 31 17 32 18 ENE 1013,8 10
22.05.2018 02:00:00 12,5 10,6 35 19 32 18 ENE 1014,0 10
22.05.2018 01:00:00 12,9 10,3 39 21 40 21 ENE 1014,3 10
22.05.2018 00:00:00 13,4 10,1 44 24 43 23 ENE 1014,6 10
21.05.2018 23:00:00 13,5 9,9 44 24 43 23 ENE 1014,7 10
21.05.2018 22:00:00 13,4 9,6 46 25 43 23 ENE 1014,7 10
21.05.2018 21:00:00 13,3 9,7 48 26 43 23 NE 1014,7 10
21.05.2018 20:00:00 13,1 9,7 48 26 43 23 NE 1014,9 10
21.05.2018 19:00:00 13,1 9,7 46 25 43 23 NE 1015,4 10
21.05.2018 18:00:00 13,3 10,0 48 26 43 23 ENE 1015,6 10
21.05.2018 17:00:00 13,1 10,3 44 24 47 25 ENE 1016,3 10
21.05.2018 16:00:00 13,6 10,4 50 27 47 25 ENE 1016,7 10
21.05.2018 15:00:00 13,2 10,5 48 26 43 23 ENE 1017,0 10
21.05.2018 14:00:00 12,6 10,4 42 23 40 21 ENE 1017,6 10
21.05.2018 13:00:00 12,7 9,9 39 21 40 21 ENE 1018,0 10
21.05.2018 12:00:00 13,3 9,8 39 21 40 21 ENE 1018,5 10
21.05.2018 11:00:00 13,1 9,5 37 20 40 21 E 1018,6 10
21.05.2018 10:00:00 12,8 9,3 39 21 40 21 E 1019,1 10
21.05.2018 09:00:00 13,0 9,3 39 21 40 21 E 1019,4 10
21.05.2018 08:00:00 13,1 9,3 42 23 40 21 E 1019,3 10
21.05.2018 07:00:00 13,2 9,2 42 23 43 23 E 1019,5 10
21.05.2018 06:00:00 13,4 9,3 44 24 40 21 E 1019,6 10
21.05.2018 05:00:00 13,7 9,3 37 20 36 19 ESE 1020,0 10
21.05.2018 04:00:00 14,0 9,2 41 22 36 19 ESE 1020,3 10
21.05.2018 03:00:00 13,2 10,0 41 22 36 19 ESE 1020,4 10
21.05.2018 02:00:00 12,5 9,7 26 14 25 14 E 1020,9 10
21.05.2018 01:00:00 11,4 9,7 28 15 29 16 NE 1021,3 10
21.05.2018 00:00:00 11,5 9,6 31 17 29 16 NNE 1021,8 10
20.05.2018 23:00:00 11,0 10,3 28 15 29 16 NE 1022,0 10
20.05.2018 22:00:00 10,0 9,9 28 15 29 16 NE 1022,5 6
20.05.2018 21:00:00 9,4 9,3 26 14 25 14 NE 1022,3 0,9
20.05.2018 20:00:00 9,2 9,1 22 12 22 12 NNE 1022,4 0,3
20.05.2018 19:00:00 9,6 9,5 21 11 22 12 NNE 1022,8 0,3
20.05.2018 18:00:00 10,4 10,3 16 9 18 10 N 1023,2 1,2
20.05.2018 17:00:00 10,2 9,7 11 6 11 6 NNE 1023,8 1,5
20.05.2018 16:00:00 10,8 9,8 6 4 - - N 1024,4 4,1
20.05.2018 15:00:00 10,6 9,5 2 1 - - NE 1024,7 6
20.05.2018 14:00:00 - - - - - - - - -
20.05.2018 13:00:00 10,4 9,7 4 2 7 4 - 1024,9 3,8
20.05.2018 12:00:00 10,2 9,4 5 3 7 4 ESE 1025,4 5
20.05.2018 11:00:00 10,1 9,3 4 2 7 4 - 1025,4 7
20.05.2018 10:00:00 10,3 9,4 4 2 11 6 - 1025,4 7
20.05.2018 09:00:00 10,3 9,6 8 4 11 6 S 1025,2 5
20.05.2018 08:00:00 10,5 10,4 7 4 14 8 SSE 1024,7 4,0
20.05.2018 07:00:00 10,7 10,5 11 6 14 8 SE 1024,1 3,1
20.05.2018 06:00:00 11,0 10,7 16 9 18 10 SSE 1023,8 2,8
20.05.2018 05:00:00 11,2 11,0 14 8 18 10 ESE 1023,8 3,5
20.05.2018 04:00:00 10,1 10,0 15 8 18 10 NE 1024,2 4,0
20.05.2018 03:00:00 9,2 9,1 16 9 14 8 NNE 1024,5 0,6
20.05.2018 02:00:00 9,3 9,2 16 9 18 10 NNE 1024,4 0,5
20.05.2018 01:00:00 10,5 10,3 16 9 14 8 NE 1024,2 3,2
20.05.2018 00:00:00 10,5 9,9 13 7 14 8 NNE 1024,6 7
19.05.2018 23:00:00 10,4 9,7 11 6 11 6 ENE 1024,2 10
19.05.2018 22:00:00 10,2 9,5 16 9 18 10 NNE 1024,3 10
19.05.2018 21:00:00 9,7 9,5 13 7 18 10 NNE 1023,9 2,4
19.05.2018 20:00:00 9,4 9,3 16 9 22 12 NNE 1023,5 0,7
19.05.2018 19:00:00 9,1 8,9 22 12 25 14 N 1023,7 6
19.05.2018 18:00:00 8,8 8,4 24 13 29 16 N 1024,2 9
19.05.2018 17:00:00 8,5 7,9 24 13 29 16 N 1024,3 10
19.05.2018 16:00:00 8,5 7,7 26 14 29 16 N 1024,4 10
19.05.2018 15:00:00 8,5 7,6 26 14 29 16 N 1024,6 10
19.05.2018 14:00:00 8,4 7,5 28 15 29 16 N 1024,8 10
19.05.2018 13:00:00 8,2 7,5 21 11 25 14 N 1025,0 10
19.05.2018 12:00:00 8,1 7,5 22 12 25 14 NNW 1024,8 10
19.05.2018 11:00:00 8,3 7,6 22 12 25 14 NNW 1024,7 10
19.05.2018 10:00:00 8,6 7,9 22 12 22 12 N 1024,1 10
19.05.2018 09:00:00 9,0 8,1 24 13 25 14 NNW 1024,0 10
19.05.2018 08:00:00 9,1 8,2 24 13 25 14 NNW 1023,7 10
19.05.2018 07:00:00 9,0 8,1 24 13 25 14 NNW 1023,7 10
19.05.2018 06:00:00 8,8 7,9 26 14 29 16 NW 1023,6 10
19.05.2018 05:00:00 8,6 7,7 24 13 25 14 NW 1023,5 10
19.05.2018 04:00:00 8,4 7,4 24 13 25 14 NW 1023,8 10
19.05.2018 03:00:00 8,6 7,2 22 12 25 14 NNW 1023,9 10
19.05.2018 02:00:00 8,6 6,9 24 13 25 14 NNW 1023,9 10
19.05.2018 01:00:00 8,5 6,4 24 13 29 16 NNW 1024,2 10
19.05.2018 00:00:00 8,6 6,0 24 13 29 16 NNW 1024,3 10
18.05.2018 23:00:00 8,7 6,0 26 14 29 16 NW 1024,5 10
18.05.2018 22:00:00 8,8 5,6 28 15 29 16 NW 1024,5 10
18.05.2018 21:00:00 8,9 5,5 28 15 29 16 NW 1024,5 10
18.05.2018 20:00:00 9,0 5,7 28 15 32 18 NNW 1024,5 10
18.05.2018 19:00:00 9,1 5,4 28 15 32 18 NW 1024,7 10
18.05.2018 18:00:00 9,3 5,2 28 15 29 16 NNW 1024,6 10
18.05.2018 17:00:00 9,4 6,7 26 14 29 16 NW 1024,9 10
18.05.2018 16:00:00 9,3 6,0 28 15 29 16 NW 1024,8 10
18.05.2018 15:00:00 9,2 6,6 26 14 29 16 NW 1025,0 10
18.05.2018 14:00:00 9,1 6,2 28 15 29 16 NW 1025,1 14
18.05.2018 13:00:00 9,1 5,8 28 15 29 16 NNW 1025,1 10
18.05.2018 12:00:00 9,0 6,0 26 14 29 16 NW 1025,2 10
18.05.2018 11:00:00 8,9 6,0 28 15 29 16 NW 1025,3 10
18.05.2018 10:00:00 8,9 6,1 29 16 29 16 NW 1025,3 10
18.05.2018 09:00:00 8,9 5,8 28 15 29 16 NNW 1025,1 10
18.05.2018 08:00:00 9,0 5,5 28 15 29 16 NNW 1024,7 10
18.05.2018 07:00:00 9,0 5,6 24 13 29 16 NW 1024,5 10
18.05.2018 06:00:00 9,0 5,8 28 15 29 16 NNW 1024,7 10
18.05.2018 05:00:00 8,9 6,1 28 15 29 16 NNW 1024,6 -
18.05.2018 04:00:00 8,8 5,7 29 16 32 18 N 1024,8 10
18.05.2018 03:00:00 8,7 5,1 28 15 36 19 N 1025,2 10
18.05.2018 02:00:00 8,8 5,4 34 18 36 19 NNW 1025,1 10
18.05.2018 01:00:00 8,8 5,2 29 16 40 21 NNW 1025,4 20
18.05.2018 00:00:00 8,8 5,1 34 18 40 21 NNW 1025,6 -
17.05.2018 23:00:00 8,8 5,0 37 20 43 23 NNW 1025,7 10
17.05.2018 22:00:00 9,0 5,5 37 20 40 21 N 1025,7 -

tt = Température de l'air
td = dewpoint
ff = Vitesse du vent
fx = gusts
dd = Direction du vent
ppp = reduced air pressure
vv = visibility

stations d'obs. à proximité